CMD weather

Cootamundra Airport
New South Wales, Australia

Public forecast

Using degrees Celsius for public forecast. Weather courtesy of forecast.io.

Closest aviation weather report (METAR) to Cootamundra Airport

Closest report is Wagga Wagga City Airport, 42.7 nm (79.1 km) SW. Retrieved 2020/02/21 03:00 UTC (40 minutes ago):

YSWG 210300Z 26005KT CAVOK 27/07 Q1015

Closest aviation forecast (TAF) to Cootamundra Airport

Forecast is more than 12 hours old.

Closest forecast is Wagga Wagga City Airport, 42.7 nm (79.1 km) SW. Retrieved 2018/05/25 18:03 UTC (2 years ago):

TAF YSWG 251649Z 2518/2608 07008KT CAVOK